Regional Weather Roundup
Issued by NWS Newport/Morehead, NC

Current Version | Previous Version | Graphics & Text | Print | Product List | Glossary On
Versions: 1 2 3 4 5 6 7 8 9 10 11 12 13 14 15 16 17 18 19 20 21 22 23 24 25 26 27 28 29 30 31 32 33 34 35 36 37 38 39 40 41 42 43 44 45 46 47 48 49 50
000 ASUS42 KMHX 261713 RWRMHX WEATHER ROUNDUP FOR EASTERN NORTH CAROLINA NATIONAL WEATHER SERVICE NEWPORT/MOREHEAD CITY NC 100 PM EDT FRI AUG 26 2016 NOTE: "FAIR" INDICATES FEW OR NO CLOUDS BELOW 12,000 FEET WITH NO SIGNIFICANT WEATHER AND/OR OBSTRUCTIONS TO VISIBILITY NCZ015>017-031-032-045>047-102-103-261800- NORTH COAST CITY SKY/WX TMP DP RH WIND PRES REMARKS EDENTON SUNNY 90 71 54 SW5 30.09S ELIZABETH CITY SUNNY 90 72 55 S7 30.08F KITTY HAWK SUNNY 93 76 58 SW3 30.08S HX 105 MANTEO SUNNY 85 72 65 S8 30.09F $$ NCZ045>047-081-094-103-104-261800- CENTRAL COAST CITY SKY/WX TMP DP RH WIND PRES REMARKS FRISCO SUNNY 86 71 60 VRB5 30.11F $$ NCZ095-097-098-100-101-261800- SOUTHERN COAST CITY SKY/WX TMP DP RH WIND PRES REMARKS BEAUFORT PTSUNNY 85 72 65 SW8 30.11S CEDAR ISLAND NOT AVBL JACKSONVILLE MOSUNNY 88 72 58 E8 30.10S PINEY ISLAND NOT AVBL WILMINGTON PTSUNNY 88 72 58 SE8 30.10F $$ NCZ011>013-027>030-043-044-078>080-089-090>093-098-261800- COASTAL PLAIN CITY SKY/WX TMP DP RH WIND PRES REMARKS AHOSKIE SUNNY 88 75 65 CALM 30.07F CLINTON SUNNY 91 74 56 CALM 30.09F HX 100 ELIZABETHTOWN SUNNY 89 71 54 S5 30.10S GOLDSBORO SUNNY 93 74 53 VRB7 30.07F HX 102 GREENVILLE SUNNY 91 73 55 SW3 30.10F HX 100 HAVELOCK MOSUNNY 87 71 58 VRB3 30.11F KENANSVILLE SUNNY 90 72 55 NW5 30.10S KINSTON SUNNY 90 72 55 SE3 30.09F NEW BERN SUNNY 90 72 55 VRB3 30.11F RICHLANDS PTSUNNY 89 73 59 CALM 30.10F ROCKY MOUNT SUNNY 92 75 57 N3 30.08F HX 103 WASHINGTON SUNNY 88 72 59 CALM 30.08F WHITEVILLE SUNNY 88 71 57 CALM 30.10S $$ AMZ130-135-150-152-154-156-158-170-250-252-270-ANZ085-086-088-633-658-670-261800- MARINE OBSERVATIONS STATION/POSITION TIME TEMP WIND PRES WAVE SWELL AIR SEA DIR/SP/G HT/PER HT/PER (UTC) (F) (DEG/KT/KT) (MB) (FT/S) (FT/S) CHESAPEAKE LIGHT NOT AVBL 64 E VA BEACH 1650 80 80 220/ 12/ 14 1018.4 3/ 8 2/ 8 DUCK 1600 82 78 220/ 10/ 12 1018.5 2 E DUCK 1641 79 N/A 2/ 8 OREGON INLET 1600 81 81 190/ 7/ 8 1019.4 13E OREGON INLT 1600 79 N/A 2/ 8 2/ 8 HATTERAS CG 1600 84 81 290/ 4/ 5 1019.6 DIAMOND BUOY 1650 82 85 CALM / 2 1019.6 2/ 8 2/ 8 CAPE LOOKOUT 1700 82 140/ 4/ 5 1019.3 BEAUFORT LAB 1600 82 80 180/ 6/ 8 1019.2 30 SE NEW RVR IN 1608 82 84 60/ 4/ 4 1019.9 30 SE NEW RVR IN NOT AVBL 27 SE WRIGHTSVLE 1608 82 83 60/ 2/ 6 1020.0 5 SE WRIGHTSVLE NOT AVBL 225 S CAPE HAT 1650 82 84 60/ 21/ 23 1016.5 6/ 6 41 SE CHARLESTON 1650 82 84 40/ 12/ 14 1018.8 2/ 8 2/ 8 $$

USA.gov is the U.S. government's official web portal to all federal, state and local government web resources and services.